Temp_Advection
nan nan nan nan nan nan nan nan nan nan nan nan nan nan nan nan nan nan nan nan nan nan
nan 0 0 1 1 0 0 0 1 0 0 0 0 0 1 1 1 -0 0 0 0 nan
nan 0 0 0 0 0 0 0 0 0 0 0 0 0 0 1 0 0 1 0 0 nan
nan 0 0 -0 -0 0 0 0 0 0 0 0 0 0 0 0 0 0 0 0 1 nan
nan 0 0 -0 -0 0 0 -0 -0 0 0 0 0 0 0 0 0 0 0 0 0 nan
nan 0 0 0 0 0 0 -0 0 0 0 -0 -0 0 0 0 0 0 0 0 0 nan
nan 0 0 0 0 0 0 0 -0 -0 -0 -0 -0 -0 -0 -0 0 0 0 0 0 nan
nan 0 0 0 0 0 0 0 0 -0 -0 0 0 -0 -0 -0 -0 -0 -0 0 0 nan
nan 0 0 0 0 0 0 0 0 0 0 0 -0 -1 -0 0 0 0 -0 -0 -0 nan
nan 0 0 -0 -0 0 0 0 0 0 0 0 -0 -0 -0 -0 -0 0 0 0 0 nan
nan -0 -0 -0 -0 -0 -0 0 0 0 0 0 0 0 -0 -0 -0 -0 -0 -0 -0 nan
nan -0 -0 -0 -0 -0 -0 -0 -0 -0 -0 -0 0 0 -0 -0 -0 -0 -0 -0 -0 nan
nan -0 -0 -0 -0 -0 -0 -0 -0 -0 -0 -0 -0 -0 0 -0 -0 -0 -0 -0 -0 nan
nan nan nan nan nan nan nan nan nan nan nan nan nan nan nan nan nan nan nan nan nan nan
Wind_Speed
14 14 13 10 10 9 10 5 6 8 12 13 15 19 22 24 28 31 32 30 31 25
17 16 16 14 12 11 9 8 8 6 7 9 11 10 14 16 20 24 27 34 34 31
18 17 17 16 16 14 11 8 6 6 6 5 5 8 10 13 14 15 19 24 28 29
17 17 16 16 16 15 13 12 10 9 8 7 5 4 4 6 9 10 13 15 20 26
17 16 16 16 16 14 14 13 14 13 10 9 9 7 5 4 4 5 7 9 10 13
17 16 16 15 14 13 13 13 12 12 13 13 12 9 8 6 5 5 5 5 7 10
13 14 14 13 12 11 11 11 11 12 12 11 12 11 9 7 5 4 4 4 5 6
10 9 9 8 9 10 9 9 10 10 11 13 18 18 7 5 6 6 5 3 2 3
8 7 6 5 5 5 5 6 7 7 7 8 10 14 12 5 2 1 2 2 1 1
7 6 5 5 4 2 2 2 2 3 4 4 5 11 11 5 2 0 2 3 1 1
6 6 5 4 3 3 2 1 0 1 1 2 4 4 3 3 3 3 3 4 5 7
4 3 3 3 3 3 3 2 2 1 3 4 6 6 6 8 7 6 6 7 7 7
3 2 2 2 3 3 2 3 3 3 4 4 4 6 8 8 9 9 9 9 9 10
3 2 2 2 2 2 2 2 2 3 4 5 6 5 7 7 9 9 10 11 12 11
Wind_Direction
110 107 109 111 115 130 133 166 191 205 207 205 216 203 217 237 242 238 232 230 225 227
95 100 99 101 105 111 119 117 133 173 161 198 231 210 211 217 228 231 237 247 243 237
89 90 91 93 94 96 100 105 113 121 145 170 196 212 210 214 234 232 233 233 243 249
86 86 86 86 84 82 84 87 93 95 105 129 144 153 186 213 228 228 238 238 245 247
85 84 84 81 79 77 77 76 75 73 81 88 101 112 126 166 182 211 229 220 228 240
85 85 84 82 80 80 78 75 75 75 75 73 70 73 89 108 139 164 188 204 220 237
82 80 81 81 82 82 78 79 79 77 75 70 61 56 60 63 88 113 144 167 193 214
76 78 79 81 79 76 79 85 87 90 95 93 86 50 36 45 47 54 60 73 121 190
67 71 76 77 81 82 85 86 85 93 109 117 94 66 48 66 98 101 61 61 62 66
56 55 59 62 66 73 75 82 95 105 112 131 129 54 37 26 41 168 209 223 221 225
45 44 49 51 48 51 57 69 210 241 229 208 234 242 59 303 289 274 279 268 254 246
69 56 45 37 39 38 32 18 347 295 258 253 259 268 278 274 277 278 275 269 269 272
36 52 55 43 40 31 21 11 358 338 317 298 278 272 279 283 272 271 272 273 272 265
326 341 358 8 13 18 8 2 346 329 321 316 307 293 279 279 284 282 279 280 275 273
Height
1426 1426 1426 1429 1428 1434 1432 1441 1437 1442 1444 1448 1459 1454 1454 1458 1464 1466 1470 1473 1475 1479
1429 1429 1429 1431 1431 1433 1438 1440 1440 1446 1441 1446 1454 1449 1452 1455 1464 1470 1466 1469 1476 1476
1432 1432 1432 1433 1435 1437 1439 1441 1443 1443 1440 1446 1449 1451 1454 1456 1461 1458 1467 1472 1473 1474
1436 1435 1435 1437 1439 1440 1442 1443 1445 1445 1446 1449 1449 1452 1452 1453 1460 1461 1465 1464 1469 1473
1438 1438 1439 1441 1442 1444 1445 1446 1447 1448 1449 1450 1451 1452 1454 1458 1460 1462 1465 1466 1467 1473
1442 1442 1443 1445 1446 1447 1447 1448 1449 1451 1452 1453 1454 1454 1455 1458 1460 1463 1466 1465 1466 1470
1446 1446 1447 1448 1449 1450 1450 1451 1452 1454 1455 1456 1457 1457 1459 1461 1462 1463 1463 1463 1467 1471
1449 1450 1451 1452 1452 1452 1453 1454 1455 1457 1458 1458 1458 1461 1461 1463 1463 1463 1464 1465 1467 1469
1452 1452 1453 1454 1454 1455 1455 1456 1457 1458 1458 1459 1460 1462 1462 1463 1464 1465 1468 1468 1469 1468
1454 1454 1454 1454 1455 1456 1456 1457 1457 1459 1459 1460 1461 1462 1464 1464 1465 1466 1467 1469 1470 1471
1456 1456 1456 1456 1456 1456 1456 1457 1458 1458 1458 1460 1461 1461 1462 1463 1464 1465 1466 1467 1469 1471
1458 1458 1457 1457 1457 1457 1457 1457 1458 1458 1459 1460 1460 1460 1461 1462 1463 1464 1465 1466 1468 1470
1457 1458 1458 1458 1457 1457 1457 1457 1457 1457 1458 1459 1459 1459 1460 1460 1462 1464 1464 1466 1468 1469
1457 1457 1457 1457 1457 1456 1456 1456 1457 1457 1457 1457 1458 1458 1459 1460 1460 1462 1463 1463 1465 1467